DateTimeUTC,F1_A11,F1_S11,BsB_S11,BsG_S11,BsR_S11,BbsB_S11,BbsG_S11,BbsR_S11,BaB_A11,BaG_A11,BaR_A11,Tu_S11,T_S11,Uu_S11,U_S11,P_S11,T1_A11
2021-08-19T17:00:00Z,00000200,20000000,,,,,,,0000.04,-000.17,-000.17,20.7,27.2,11.6,07.8,0675.6,31.2
2021-08-19T17:01:00Z,00000200,20000000,,,,,,,-000.16,-000.12,-000.04,20.7,27.2,11.5,07.8,0675.6,31.2
2021-08-19T17:02:00Z,00000200,20000000,,,,,,,0000.04,0000.12,0000.24,20.7,27.2,11.2,07.6,0675.6,31.1
2021-08-19T17:03:00Z,00000200,60000000,,,,,,,0000.17,0000.24,0000.03,20.7,27.2,11.2,07.6,0675.6,31.2
2021-08-19T17:04:00Z,00000200,40000000,0002.70,0002.66,0001.32,0000.25,0000.37,-000.21,0000.88,0000.57,0000.85,20.8,27.1,10.3,07.1,0676.5,31.2
2021-08-19T17:05:00Z,00000200,00000000,0002.29,0002.51,0001.56,0000.24,0000.29,-000.05,0001.02,0000.89,0000.73,20.9,27.0,10.3,07.1,0676.6,31.2
2021-08-19T17:06:00Z,00000200,00000000,0003.34,0002.15,0001.58,0000.67,0000.41,0000.25,0000.74,0000.64,0000.40,20.9,27.0,10.5,07.3,0676.6,31.2
2021-08-19T17:07:00Z,00000200,00000000,0002.73,0002.31,0001.38,0000.42,0000.34,0000.31,0000.94,0001.32,0000.71,20.9,27.0,10.7,07.4,0676.6,31.2
2021-08-19T17:08:00Z,00000200,00000000,0002.85,0002.00,0001.11,0000.67,0000.22,0000.17,0001.04,0000.98,0000.74,20.9,27.0,11.2,07.7,0676.6,31.2
2021-08-19T17:09:00Z,00000200,00000000,0002.39,0001.65,0001.33,0000.22,0000.37,0000.35,0001.08,0000.84,0000.83,20.9,27.0,11.5,07.9,0676.6,31.2
2021-08-19T17:10:00Z,00000200,00000000,0002.95,0001.78,0001.07,0000.61,0000.50,-000.08,0000.97,0000.61,0000.22,20.9,27.0,11.7,08.1,0676.6,31.2
2021-08-19T17:11:00Z,00000200,00000000,0002.03,0001.77,0001.22,0000.43,-000.01,0000.27,0000.58,0000.70,0000.76,20.9,27.0,11.8,08.1,0676.6,31.2
2021-08-19T17:12:00Z,00000200,00000000,0002.38,0001.87,0001.22,0000.84,0000.09,0000.33,0000.63,0000.78,0000.16,20.9,27.0,11.8,08.2,0676.6,31.2
2021-08-19T17:13:00Z,00000200,00000000,0002.69,0001.86,0001.26,0000.74,0000.50,0000.28,0000.69,0000.87,0000.78,20.9,27.0,12.0,08.3,0676.6,31.1
2021-08-19T17:14:00Z,00000200,00000000,0002.85,0001.83,0001.03,0000.90,0000.26,0000.46,0000.80,0000.52,0000.13,20.9,27.0,12.1,08.4,0676.6,31.2
2021-08-19T17:15:00Z,00000200,00000000,0002.08,0002.10,0001.28,-000.13,0000.42,0000.02,0000.98,0000.56,0000.69,20.9,27.0,12.0,08.3,0676.6,31.2
2021-08-19T17:16:00Z,00000200,00000000,0002.45,0001.85,0001.38,0000.61,0000.33,0000.26,0000.40,0000.79,0000.56,20.9,27.0,12.0,08.3,0676.6,31.2
2021-08-19T17:17:00Z,00000200,00000000,0002.31,0002.31,0001.38,0000.46,0000.34,-000.02,0000.68,0000.45,0000.29,20.9,27.0,11.9,08.3,0676.6,31.2
2021-08-19T17:18:00Z,00000200,00000000,0001.76,0002.20,0001.30,0000.51,0000.44,-000.01,0001.24,0000.75,0000.89,20.9,27.0,12.1,08.4,0676.6,31.2
2021-08-19T17:19:00Z,00000200,00000000,0003.09,0001.83,0001.46,0000.62,0000.10,0000.22,0000.47,0000.64,0000.60,20.9,27.0,12.1,08.4,0676.6,31.2
2021-08-19T17:20:00Z,00000200,00000000,0002.74,0001.91,0001.20,0000.71,0000.58,-000.12,0000.90,0000.88,0000.36,20.9,27.0,12.2,08.5,0676.6,31.2
2021-08-19T17:21:00Z,00000200,00000000,0003.07,0002.35,0001.29,0000.96,0000.30,0000.62,0000.86,0000.63,0000.29,20.9,27.0,12.2,08.4,0676.6,31.2
2021-08-19T17:22:00Z,00000200,00000000,0002.69,0001.97,0001.37,0000.74,0000.10,0000.53,0000.72,0000.66,0000.44,20.9,27.0,12.1,08.4,0676.6,31.2
2021-08-19T17:23:00Z,00000200,00000000,0002.49,0002.05,0001.13,0000.73,0000.24,0000.23,0000.37,0000.56,0000.66,20.9,27.0,12.1,08.4,0676.6,31.2
2021-08-19T17:24:00Z,00000200,00000000,0002.20,0002.29,0001.42,0000.91,0000.28,0000.16,0001.09,0000.97,0000.91,20.9,27.0,12.1,08.4,0676.6,31.2
2021-08-19T17:25:00Z,00000200,00000000,0002.22,0002.10,0001.48,0000.31,0000.30,-000.02,0000.56,0000.63,0000.41,20.9,27.0,12.3,08.5,0676.6,31.2
2021-08-19T17:26:00Z,00000200,00000000,0002.23,0001.73,0001.30,0000.49,0000.12,0000.23,0000.53,0000.31,0000.19,20.9,27.0,12.2,08.5,0676.6,31.2
2021-08-19T17:27:00Z,00000200,00000000,0003.05,0001.72,0001.25,-000.02,0000.28,-000.08,0000.75,0000.57,0000.33,20.9,27.0,12.3,08.5,0676.6,31.2
2021-08-19T17:28:00Z,00000200,00000000,0003.03,0001.90,0001.12,0000.80,0000.46,0000.19,0000.55,0000.77,0000.61,20.9,27.0,12.1,08.4,0676.6,31.2
2021-08-19T17:29:00Z,00000200,00000000,0003.24,0001.55,0001.21,0000.90,0000.07,-000.22,0000.55,0000.62,0000.25,20.9,27.0,11.6,08.0,0676.6,31.2
2021-08-19T17:30:00Z,00000200,00000000,0003.39,0002.24,0001.64,0000.44,0000.10,0000.38,0000.69,0000.05,0000.43,20.9,27.0,11.4,07.9,0676.6,31.2
2021-08-19T17:31:00Z,00000200,00000000,0003.47,0002.40,0001.40,0000.46,0000.30,0000.46,0000.53,0000.69,0000.66,20.9,27.0,11.1,07.7,0676.7,31.2
2021-08-19T17:32:00Z,00000200,00000000,0003.34,0002.78,0001.79,0000.31,0000.93,-000.02,0000.77,0000.69,0000.57,20.9,27.0,11.1,07.7,0676.7,31.2
2021-08-19T17:33:00Z,00000200,00000000,0003.17,0002.44,0001.88,0000.22,0000.38,0000.37,0000.63,0000.76,0000.32,20.9,26.9,10.9,07.5,0676.6,31.2
2021-08-19T17:34:00Z,00000200,00000000,0003.50,0002.23,0001.37,0000.61,0000.36,-000.18,0000.98,0000.73,0000.61,20.9,27.0,11.0,07.7,0676.6,31.2
2021-08-19T17:35:00Z,00000200,00000000,0003.06,0002.41,0001.65,0000.46,-000.07,-000.01,0000.60,0000.68,0000.60,20.9,27.0,11.0,07.6,0676.6,31.2
2021-08-19T17:36:00Z,00000200,00000000,0003.08,0001.96,0001.57,0000.20,0000.45,0000.07,0001.07,0000.84,0000.87,20.9,27.0,11.0,07.6,0676.6,31.2
2021-08-19T17:37:00Z,00000200,00000000,0003.29,0002.35,0001.79,0000.92,0000.43,0000.18,0001.02,0001.16,0000.59,20.9,27.0,11.1,07.7,0676.6,31.2
2021-08-19T17:38:00Z,00000200,00000000,0002.89,0002.21,0001.59,0000.67,0000.57,0000.25,0000.82,0001.08,0000.55,20.9,26.9,11.2,07.7,0676.6,31.2
2021-08-19T17:39:00Z,00000200,00000000,0003.14,0002.40,0001.57,-000.13,0000.13,0000.11,0000.82,0000.40,0000.56,20.9,27.0,11.1,07.7,0676.6,31.2
2021-08-19T17:40:00Z,00000200,00000000,0003.71,0002.73,0001.43,0001.15,0000.52,-000.09,0000.65,0000.41,0000.55,20.9,27.0,10.8,07.5,0676.6,31.2
2021-08-19T17:41:00Z,00000200,00000000,0003.32,0002.68,0001.52,0000.39,0000.39,0000.20,0000.75,0000.84,0000.43,20.9,27.0,10.7,07.4,0676.6,31.2
2021-08-19T17:42:00Z,00000200,00000000,0003.51,0002.72,0001.42,0000.61,0000.51,0000.36,0001.38,0001.10,0000.69,20.9,27.0,11.0,07.6,0676.6,31.1
2021-08-19T17:43:00Z,00000200,00000000,0002.59,0002.47,0001.68,0000.54,0000.38,-000.04,0000.74,0000.74,0000.82,20.9,27.0,11.0,07.6,0676.6,31.2
2021-08-19T17:44:00Z,00000200,00000000,0002.60,0002.53,0001.53,0000.49,0000.25,0000.18,0000.77,0001.00,0000.80,20.9,27.0,10.9,07.6,0676.6,31.2
2021-08-19T17:45:00Z,00000200,00000000,0003.05,0002.14,0001.40,0000.98,0000.24,0000.16,0000.77,0000.41,0000.30,20.9,27.0,11.0,07.6,0676.6,31.2
2021-08-19T17:46:00Z,00000200,00000000,0003.19,0002.64,0001.66,0000.70,0000.49,0000.32,0000.94,0000.84,0000.45,20.9,27.0,10.7,07.4,0676.6,31.2
2021-08-19T17:47:00Z,00000200,00000000,0003.30,0002.59,0001.60,0000.74,-000.10,0000.14,0000.83,0000.75,0000.80,20.9,27.0,10.7,07.4,0676.6,31.2
2021-08-19T17:48:00Z,00000200,00000000,0004.12,0002.35,0001.68,0000.44,0000.42,-000.03,0000.79,0000.62,0000.32,20.9,27.0,10.6,07.4,0676.6,31.2
2021-08-19T17:49:00Z,00000200,00000000,0002.70,0002.29,0001.44,0001.11,0000.05,0000.20,0000.89,0001.38,0000.97,20.9,27.0,10.7,07.4,0676.6,31.2
2021-08-19T17:50:00Z,00000200,00000000,0003.34,0002.38,0001.47,-000.17,0000.18,-000.02,0000.92,0000.34,0000.27,20.9,27.0,10.9,07.6,0676.6,31.2
2021-08-19T17:51:00Z,00000200,00000000,0003.43,0002.67,0001.58,0000.76,0000.57,0000.01,0001.05,0001.06,0001.02,20.9,26.9,10.9,07.5,0676.6,31.2
2021-08-19T17:52:00Z,00000200,00000000,0002.73,0002.41,0001.61,0000.26,0000.20,0000.05,0001.06,0000.58,0000.61,20.8,27.0,10.8,07.5,0676.6,31.2
2021-08-19T17:53:00Z,00000200,00000000,0002.54,0002.49,0001.32,0000.14,0000.62,0000.16,0000.99,0001.28,0000.59,20.9,26.9,10.8,07.5,0676.6,31.2
2021-08-19T17:54:00Z,00000200,00000000,0003.17,0002.11,0001.23,0000.95,0000.20,0000.07,0001.12,0000.81,0001.02,20.9,27.0,11.0,07.6,0676.6,31.2
2021-08-19T17:55:00Z,00000200,00000000,0002.83,0002.77,0001.54,-000.01,0000.42,-000.05,0000.59,0000.75,0000.28,20.9,27.0,11.3,07.8,0676.6,31.2
2021-08-19T17:56:00Z,00000200,00000000,0003.52,0002.48,0001.88,0001.13,0000.70,0000.42,0000.89,0000.75,0000.65,20.9,27.0,11.0,07.6,0676.6,31.2
2021-08-19T17:57:00Z,00000200,40000000,,,,,,,0000.54,0000.53,0000.68,20.9,27.0,11.4,07.9,0676.6,31.2
2021-08-19T17:58:00Z,00000200,60000000,,,,,,,-000.02,-000.06,-000.25,20.6,27.0,11.4,07.7,0675.6,31.2
2021-08-19T17:59:00Z,00000200,20000000,,,,,,,-000.02,-000.07,0000.23,20.6,27.1,11.3,07.6,0675.6,31.2
